Flag for Pakistan Weather past 2 weeks in Narowal, Pakistan

Now
82 °F

Fog.


Feels Like: 96 °F
Forecast: 80 / 98 °F
Wind: 2 mph from North

Location: Amritsar Airport

Current Time: Jul 29, 2014 at 7:06:52 AM

Latest Report: Jul 29, 2014 at 6:30 AM


Visibility: 1 mi

Pressure: 29.53 "Hg

Humidity: 100%

Dew point: 82 °F

Location of NarowalLocation

Historic Weather in Narowal — Graph

°F

Narowal temperature yesterday

Maximum temperature yesterday: 90 °F (at 1:00 PM)
Minimum temperature yesterday: 81 °F (at 6:00 AM)
Average temperature yesterday: 85 °F

Past Weeks' High & Low Weather Summary

 TemperatureHumidityPressure
High99 °F (Jul 14, 3:00 PM)100% (Jul 17, 10:00 PM)29.68 "Hg (Jul 17, 10:00 PM)
Low70 °F (Jul 26, 5:30 PM)53% (Jul 14, 3:00 PM)29.36 "Hg (Jul 15, 4:30 PM)
Average87 °F81%29.50 "Hg
* Reported Jul 14 5:00 AM — Jul 29 5:30 AM, Narowal, Weather by CustomWeather, © 2014

Note: Actual official high and low records may vary slightly from our data, if they occured in-between our weather recording intervals... More about our weather records

Advertising

Narowal weather history for previous 24 hours

 ConditionsComfort  
Time TempWeatherWind HumidityBarometerVisibility
5:30 AM
Jul 29
82 °FFog.1 mph100%29.50 "Hg1 mi
5:00 AM82 °FFog.1 mph100%29.50 "Hg1 mi
4:30 AM82 °FFog.2 mph100%29.50 "Hg1 mi
4:00 AM82 °FFog.2 mph100%29.50 "Hg1 mi
3:30 AM82 °FFog.1 mph100%29.50 "Hg1 mi
3:00 AM82 °FFog.No wind100%29.53 "Hg1 mi
1:30 AM82 °FFog.1 mph100%29.53 "Hg1 mi
1:00 AM82 °FFog.No wind100%29.53 "Hg1 mi
12:30 AM82 °FFog.1 mph100%29.53 "Hg1 mi
12:00 AM82 °FFog.No wind100%29.56 "Hg1 mi
11:30 PM
Jul 28
82 °FFog.1 mph100%29.56 "Hg1 mi
11:00 PM82 °FFog.No wind100%29.56 "Hg1 mi
10:30 PM82 °FFog.No wind100%29.56 "Hg2 mi
10:00 PM84 °FFog.2 mph94%29.53 "Hg2 mi
9:30 PM84 °FFog.1 mph94%29.53 "Hg2 mi
9:00 PM84 °FFog.2 mph94%29.53 "Hg2 mi
8:30 PM84 °FFog.3 mph94%29.53 "Hg2 mi
8:00 PM84 °FFog.3 mph94%29.53 "Hg2 mi
7:30 PM84 °FFog.3 mph94%29.50 "Hg2 mi
7:00 PM86 °FFog.1 mph84%29.50 "Hg3 mi
6:30 PM86 °FScattered clouds.6 mph84%29.47 "Hg3 mi
6:00 PM86 °FBroken clouds.7 mph84%29.50 "Hg3 mi
4:30 PM88 °FBroken clouds.7 mph79%29.47 "Hg4 mi
4:00 PM90 °FBroken clouds.7 mph75%29.50 "Hg4 mi
3:30 PM90 °FBroken clouds.7 mph75%29.50 "Hg4 mi
3:00 PM90 °FBroken clouds.7 mph75%29.50 "Hg4 mi
2:30 PM90 °FBroken clouds.6 mph71%29.53 "Hg4 mi
2:00 PM90 °FBroken clouds.8 mph71%29.53 "Hg4 mi
1:30 PM90 °FBroken clouds.6 mph71%29.53 "Hg4 mi
1:00 PM90 °FBroken clouds.7 mph71%29.53 "Hg4 mi
12:30 PM86 °FBroken clouds.6 mph79%29.56 "Hg4 mi
12:00 PM86 °FBroken clouds.8 mph79%29.56 "Hg4 mi
11:30 AM86 °FBroken clouds.9 mph79%29.56 "Hg4 mi
11:00 AM84 °FBroken clouds.8 mph89%29.59 "Hg3 mi
10:00 AM86 °FFog.10 mph79%29.56 "Hg2 mi
9:30 AM86 °FFog.10 mph79%29.56 "Hg2 mi
9:00 AM84 °FFog.8 mph89%29.56 "Hg2 mi
8:30 AM84 °FFog.8 mph89%29.56 "Hg2 mi
8:00 AM82 °FFog.10 mph94%29.59 "Hg2 mi
7:00 AM82 °FFog.9 mph100%29.59 "Hg1 mi
Weather by CustomWeather, © 2014

See weather overviewHow to use our weather pages